FW0099 Weather Reports


Display with metric or nautical units.
time (UTC)temp
F
wind
direction
speed
MPH
gust
MPH
rain 1hr
in
rain 24hr
in
rain mn
in
humidity
%
barometer
mb
20260502204216 59 0.0 0.0 0.00 0.12 0.12 87 1012.2
20260502203215 59 0.0 0.0 0.00 0.12 0.12 87 1012.3
20260502202215 59 0.0 0.0 0.06 0.12 0.12 86 1012.3
20260502201215 59 0.0 0.0 0.11 0.11 0.11 86 1012.5
20260502200215 60 0.0 0.0 0.11 0.11 0.11 84 1012.5
20260502195216 60 0.0 0.0 0.11 0.11 0.11 83 1012.4
20260502194215 61 0.0 0.0 0.11 0.11 0.11 82 1012.6
20260502193215 62 0.0 0.0 0.11 0.11 0.11 79 1012.7
20260502192215 64 172 0.0 4.0 0.06 0.06 0.06 74 1013.1
20260502191215 65 171 3.0 8.0 0.00 0.00 0.00 62 1013.2
20260502190215 67 159 3.0 8.0 0.00 0.00 0.00 62 1012.8
20260502185215 68 169 2.0 4.0 0.00 0.00 0.00 54 1012.7
20260502184215 69 120 0.0 3.0 0.00 0.00 0.00 58 1012.6
20260502183215 70 109 0.0 3.0 0.00 0.00 0.00 57 1012.7
20260502182216 70 163 0.0 8.0 0.00 0.00 0.00 52 1012.7
20260502181215 71 0.0 0.0 0.00 0.00 0.00 49 1012.4
20260502180215 72 0.0 0.0 0.00 0.00 0.00 47 1012.4
20260502170215 74 190 0.0 2.0 0.00 0.00 0.00 39 1012.4
20260502164215 75 147 0.0 4.0 0.00 0.00 0.00 40 1012.7
20260502163215 76 213 1.0 5.0 0.00 0.00 0.00 38 1012.9
20260502162215 76 135 0.0 3.0 0.00 0.00 0.00 38 1013.0
20260502161215 75 215 1.0 4.0 0.00 0.00 0.00 40 1013.1
20260502160235 75 274 0.0 2.0 0.00 0.00 0.00 42 1013.2
20260502152217 76 204 0.0 4.0 0.00 0.00 0.00 39 1013.8
20260502151217 76 204 1.0 8.0 0.00 0.00 0.00 36 1013.9
20260502150217 76 167 4.0 9.0 0.00 0.00 0.00 39 1014.1
20260502130217 75 172 3.0 6.0 0.00 0.00 0.00 44 1015.7
20260502123217 75 188 5.0 9.0 0.00 0.00 0.00 44 1016.0
20260502122216 76 251 1.0 3.0 0.00 0.00 0.00 43 1016.1
20260502121237 77 199 1.0 6.0 0.00 0.00 0.00 41 1016.3
20260502120216 79 160 2.0 5.0 0.00 0.00 0.00 38 1016.3
20260502115217 79 191 6.0 10.0 0.00 0.00 0.00 39 1016.4
20260502114217 78 232 2.0 6.0 0.00 0.00 0.00 41 1016.4
20260502113216 78 210 1.0 7.0 0.00 0.00 0.00 40 1016.4
20260502112217 80 245 2.0 4.0 0.00 0.00 0.00 38 1016.6
20260502111217 81 217 1.0 7.0 0.00 0.00 0.00 40 1016.6
20260502110216 80 309 1.0 4.0 0.00 0.00 0.00 40 1016.7
20260502105216 80 180 2.0 7.0 0.00 0.00 0.00 38 1016.7
20260502104217 80 165 2.0 4.0 0.00 0.00 0.00 38 1016.8
20260502103216 79 161 5.0 10.0 0.00 0.00 0.00 40 1017.0
20260502102217 79 172 2.0 6.0 0.00 0.00 0.00 40 1017.1
20260502101217 80 170 3.0 7.0 0.00 0.00 0.00 37 1017.2
20260502100216 79 180 3.0 9.0 0.00 0.00 0.00 40 1017.2
20260502091217 77 355 0.0 1.0 0.00 0.00 0.00 42 1017.5
20260502090217 75 270 1.0 3.0 0.00 0.00 0.00 44 1017.7
20260502071236 62 177 6.0 8.0 0.00 0.00 0.00 53 1018.0
20260502070216 59 175 3.0 7.0 0.00 0.00 0.00 55 1018.1
20260502065236 58 172 3.0 6.0 0.00 0.00 0.00 60 1018.1
20260502064216 56 172 3.0 6.0 0.00 0.00 0.00 62 1018.1
20260502063257 56 172 1.0 4.0 0.00 0.00 0.00 66 1018.1
20260502062216 54 0.0 0.0 0.00 0.00 0.00 70 1018.0
20260502061216 53 0.0 0.0 0.00 0.00 0.00 75 1018.0
20260502060236 53 0.0 0.0 0.00 0.00 0.00 77 1018.1
20260502055216 52 0.0 0.0 0.00 0.00 0.00 76 1018.0
20260502054216 52 0.0 0.0 0.00 0.00 0.00 76 1018.0
20260502053216 51 0.0 0.0 0.00 0.00 0.00 79 1017.9
20260502052216 50 0.0 0.0 0.00 0.00 0.00 81 1017.8
20260502051216 49 0.0 0.0 0.00 0.00 0.00 82 1017.6
20260502050216 48 0.0 0.0 0.00 0.00 0.00 83 1017.8
20260502045216 47 0.0 0.0 0.00 0.00 0.00 85 1017.7
20260502044216 46 0.0 0.0 0.00 0.00 0.00 86 1017.7
20260502043216 45 0.0 0.0 0.00 0.00 0.00 85 1017.7
20260502042216 44 0.0 0.0 0.00 0.00 0.00 85 1017.8
20260502041216 43 0.0 0.0 0.00 0.00 0.00 85 1017.8
20260502040216 43 0.0 0.0 0.00 0.00 0.00 85 1017.8
20260502035216 43 0.0 0.0 0.00 0.00 0.00 85 1017.8
20260502034236 43 0.0 0.0 0.00 0.00 0.00 85 1017.9
20260502033216 43 0.0 0.0 0.00 0.00 0.00 85 1018.1
20260502032216 43 0.0 0.0 0.00 0.00 0.00 85 1018.2
20260502031216 43 0.0 0.0 0.00 0.00 0.00 84 1018.1
20260502030216 43 0.0 0.0 0.00 0.00 0.00 84 1018.1
20260502025236 43 0.0 0.0 0.00 0.00 0.00 84 1018.0
20260502024236 43 0.0 0.0 0.00 0.00 0.00 84 1018.2
20260502023216 43 0.0 0.0 0.00 0.00 0.00 84 1018.3
20260502022216 43 0.0 0.0 0.00 0.00 0.00 83 1018.3
20260502021216 43 0.0 0.0 0.00 0.00 0.00 83 1018.3
20260502020235 43 0.0 0.0 0.00 0.00 0.00 82 1018.4
20260502015216 43 0.0 0.0 0.00 0.00 0.00 82 1018.5
20260502014216 44 0.0 0.0 0.00 0.00 0.00 82 1018.5
20260502013215 44 0.0 0.0 0.00 0.00 0.00 83 1018.6
20260502012216 44 0.0 0.0 0.00 0.00 0.00 83 1018.7
20260502011215 44 0.0 0.0 0.00 0.00 0.00 82 1018.8
20260502010216 44 0.0 0.0 0.00 0.00 0.00 81 1018.9
20260502005215 44 0.0 0.0 0.00 0.00 0.00 80 1019.0
20260502004215 44 0.0 0.0 0.00 0.00 0.00 79 1019.0
20260502003215 45 0.0 0.0 0.00 0.00 0.00 79 1019.0
20260502002256 45 0.0 0.0 0.00 0.00 0.00 80 1019.2
20260502001216 45 0.0 0.0 0.00 0.00 0.00 80 1019.3
20260502000215 46 0.0 0.0 0.00 0.00 0.00 80 1019.4
20260501235215 46 0.0 0.0 0.00 0.00 0.00 79 1019.5
20260501234215 46 0.0 0.0 0.00 0.00 0.00 78 1019.6
20260501233215 47 0.0 0.0 0.00 0.00 0.00 77 1019.6
20260501232215 47 0.0 0.0 0.00 0.00 0.00 76 1019.6
20260501231216 47 0.0 0.0 0.00 0.00 0.00 76 1019.8
20260501230215 48 0.0 0.0 0.00 0.00 0.00 76 1019.8
20260501225236 48 0.0 0.0 0.00 0.00 0.00 76 1019.8
20260501224215 48 0.0 0.0 0.00 0.00 0.00 75 1019.9
20260501223215 49 0.0 0.0 0.00 0.00 0.00 72 1019.9
20260501222215 49 0.0 0.0 0.00 0.00 0.00 72 1019.9
20260501221215 49 0.0 0.0 0.00 0.00 0.00 71 1019.9
20260501220215 49 0.0 0.0 0.00 0.00 0.00 71 1019.9
20260501215236 50 0.0 0.0 0.00 0.00 0.00 71 1019.8
20260501214216 50 0.0 0.0 0.00 0.00 0.00 69 1019.8
20260501213236 51 0.0 0.0 0.00 0.00 0.00 69 1019.8
20260501212235 51 0.0 0.0 0.00 0.00 0.00 68 1019.8
20260501211216 52 0.0 0.0 0.00 0.00 0.00 68 1019.8
20260501210216 52 0.0 0.0 0.00 0.00 0.00 66 1019.8
20260501205216 53 0.0 0.0 0.00 0.00 0.00 63 1019.8